Main page


Airports :

Zabol, Iran

Zabol Airport

latitude: 31-20N, longitude: 061-29E, elevation: 489 m

Current weather observation

The report was made 58 minutes ago, at 09:00 UTC
Wind 12 kt from the South
Temperature 31°C
Humidity 15%
Pressure 1003 hPa
Visibility 10 km or more
Few clouds at a height of 4000 ft
Scattered clouds at a height of 19000 ft

METAR: OIZB 180900Z 18012KT 9999 FEW040 SCT190 31/01 Q1003

Time: 13:28 (09:58 UTC)

TAF: missing

Weather observations and forecasts of more than 4000 airports (METAR and TAF reports).

The available stations are represented by yellow and red dots on the map.

Hover mouse over dot to see the name of the station.

Then click to see weather observations and forecasts.

To change the map : click on the green buttons with a black cross to zoom in, on the green button with a dash to zoom out, or on the green arrows for adjacent maps.